La Provençale Sainte Victoire - 26/04/2015

80 Km


Pl Do. Nom - Surname Prénom - Name S-Cat /cat Club - Team TEMPS - Time Km/h /sx
1 1 Graziano Bernard MH 1 vtt du garlaban 2:18:10.82 34,7 1
2 22 D'amico Mario MI 1 UC MONACO 2:18:12.14 34,7 2
3 54 Boulan Olivier MF 1 vc miramas 2:18:19.86 34,7 3
4 66 Theurel Jean ME 1   2:20:28.76 34,2 4
5 99 Bidorini Baptiste MD 1 avcaix 2:20:29.59 34,2 5
6 657 Galy Eric MH 2 eric galy 2:20:31.16 34,2 6
7 406 Mandelli Jean philippe MG 1 Velo club la pomme 2:20:31.65 34,2 7
8 412 Rodriguez Mickael ME 2 UC Pontcharra 2:20:31.84 34,2 8
9 2 Scandolera Julien ME 3   2:20:33.60 34,1 9
10 9 Arnaud Alexandre ME 4 Airbus helicopters 2:20:33.89 34,1 10
11 97 Tamborini Dany ME 5 TEAM HALGAND 04 2:20:33.89 34,1 11
12 265 Marteau Pierre-yves MD 2 Triathl'Aix 2:20:35.20 34,1 12
13 562 Halgand Patrice MF 2 TEAM HALGAND 04 2:20:35.40 34,1 13
14 78 Bernard Jérôme MF 3 TEAM MADEWIS 2:20:35.82 34,1 14
15 10 Boyer Sébastien MD 3 Airbus Helicopters 2:20:35.99 34,1 15
16 36 Manta Guillaume ME 6 Audrey Ponty 2:20:36.06 34,1 16
17 686 Roux Janick MF 4 vc six fours 2:20:36.40 34,1 17
18 775 Feraud Nicolas MD 4 GALLARDO BIKE SHOP 2:20:36.71 34,1 18
19 400 Solérieu Franck ME 7 GNFY MONT VENTOUX 2:20:37.51 34,1 19
20 699 Wallet Florian MD 5   2:20:38.04 34,1 20
21 485 Pitaval Lionel MF 5 RO Sisteron 2:20:38.24 34,1 21
22 75 Nobili Fabien MD 6 TEAM MADEWIS 2:20:41.82 34,1 22
23 639 Piroux Serge MH 3 VC La Pomme Marseille 2:20:42.90 34,1 23
24 493 Di ciccio Loris MD 7 UCPG 2:20:43.32 34,1 24
25 325 Siano Daniel MG 2 VTT du Garlaban 2:20:49.57 34,1 25
26 156 Le beux Francois ME 8 CCS 34 2:20:50.90 34,1 26
27 505 Payany Denis MF 6 VELO CLUB DE MARSEILLE 2:20:51.20 34,1 27
28 774 Portron Guillaume MD 8 GALLARDO BIKE SHOP 2:20:51.66 34,1 28
29 394 Pifferi Benoit MD 9 vélo + 2:20:51.78 34,1 29
30 49 Chow-chine Laurent MF 7 VTT DU GARLABAN 2:20:52.95 34,1 30
31 122 Gnagni Gilles MD 10 IFC Nice Cyclisme 2:20:53.00 34,1 31
32 421 Dervieau Dany MD 11 Dervieau 2:20:53.54 34,1 32
33 498 Velon Mickaël MD 12 Bourg Ain Cyclisme 2:20:54.87 34,1 33
34 776 Boyer Tedy MD 13 GALLARDO BIKE SHOP 2:20:57.08 34,1 34
35 29 Chenu Rémi ME 9 RO SISTERON 2:20:58.80 34,0 35
36 608 Donadieu Maxime MD 14 Vélo Club Marseille 2:21:01.23 34,0 36
37 96 Boucault Cyril ME 10 A.C.Marseille Est 2:21:06.23 34,0 37
38 6 Limongi Jean-marc MF 8   2:21:08.23 34,0 38
39 23 Denizot Frédéric ME 11 VTT DU GARLABAN 2:21:23.23 33,9 39
40 255 Pouchol Fabien MD 15   2:22:01.04 33,8 40
41 609 Pivain Claude MF 9 velo club gennevillois 2:22:07.25 33,8 41
42 116 Lefever Jeanmarc MH 4 tobesport 2:22:08.11 33,8 42
43 425 Grima Philippe MG 3 VC La Pomme 2:22:08.16 33,8 43
44 710 Avances Christophe MG 4 SVC Nimes 2:22:10.24 33,8 44
45 20 Pons Bernard MH 5 AVCAIX 2:22:10.39 33,8 45
46 11 Raffin Didier MJ 1 A V C AIX EN PROVENCE 2:22:11.23 33,8 46
47 90 Beaumond Philippe MI 2 VTT DU GARLABAN 2:22:16.13 33,7 47
48 700 Paquier Guillaume MF 10 Paquier 2:23:49.74 33,4 48
49 607 Sein Julien ME 12   2:23:50.25 33,4 49
50 38 Ollivier Thierry MG 5 Thierry OLLIVIER 2:24:57.08 33,1 50
51 41 Reiman Jean louis MI 3 R.O SANARY 2:26:40.12 32,7 51
52 480 Prouet Sylvain ME 13 Sylvain PROUET 2:26:59.32 32,7 52